Location: Austin
(30.3000°N, 97.7500°W)
Time: 20:58:29
(UTC-06:00)

COSMOS 2406 - Visible Passes

Search period start: 26 February 2024 00:00
Search period end: 07 March 2024 00:00
Orbit: 842 x 864 km, 71.0° (Epoch: 26 February)

Date Brightness Start Highest point End Pass type
(mag) Time Alt. Az. Time Alt. Az. Time Alt. Az.
26 Feb 5.0 04:14:37 15° NNE 04:18:26 28° ENE 04:23:18 10° ESE visible
26 Feb 3.9 05:57:37 10° NW 06:02:37 31° WSW 06:07:37 10° SSW visible
26 Feb 4.2 19:00:15 10° SW 19:05:44 52° WNW 19:11:16 10° N visible
27 Feb 5.0 04:05:37 26° NE 04:06:44 28° ENE 04:11:37 10° ESE visible
27 Feb 3.9 05:47:50 19° NW 05:50:54 31° WSW 05:55:53 10° SSW visible
27 Feb 4.2 18:48:33 10° SW 18:54:01 51° WNW 18:59:34 10° N visible
28 Feb 5.1 03:56:34 25° E 03:56:34 25° E 03:59:56 10° ESE visible
28 Feb 3.9 05:38:47 30° W 05:39:12 31° WSW 05:44:08 10° SSW visible
29 Feb 5.7 03:47:23 14° ESE 03:47:23 14° ESE 03:48:14 10° ESE visible
29 Feb 4.4 05:29:35 24° SW 05:29:35 24° SW 05:32:25 10° SSW visible
01 Mar 5.3 05:20:13 12° SSW 05:20:13 12° SSW 05:20:42 10° SSW visible
